Regional Weather Roundup
Issued by NWS

Home | Current Version | Previous Version | Text Only | Print | Product List | Glossary Off
Versions: 1 2 3 4 5 6 7 8 9 10 11 12 13 14 15 16 17 18 19 20 21 22 23 24 25 26 27 28 29 30 31 32 33 34 35 36 37 38 39 40 41 42 43 44 45 46 47 48 49 50

000
ASUS43 KOAX 301210
RWRNE

WEATHER ROUNDUP FOR NEBRASKA
NATIONAL WEATHER SERVICE OMAHA NE
700 AM CDT THU MAR 30 2017

NOTES: SATELLITE DATA IS BEING USED TO AUGMENT CLOUD COVER ABOVE
       12000 FEET.
       "FAIR" INDICATES FEW OR NO CLOUDS BELOW 12,000 FEET WITH NO
       SIGNIFICANT WEATHER AND/OR OBSTRUCTIONS TO VISIBILITY.

  * THESE STATIONS DO NOT REPORT WEATHER SUCH AS RAIN...SNOW OR FOG.

NEZ001>004-019>022-054>056-301300-
NEBRASKA PANHANDLE

CITY           SKY/WX    TMP DP  RH WIND       PRES   REMARKS
SCOTTSBLUFF    CLOUDY    32  30  92 CALM      29.79F
6HR MIN TEMP:  31; 6HR MAX TEMP:  37;

ALLIANCE       FOG       24  22  91 SE3       29.79F VSB 1/4
6HR MIN TEMP:  23; 6HR MAX TEMP:  31;

CHADRON        CLOUDY    31  28  89 CALM      29.79F
6HR MIN TEMP:  31; 6HR MAX TEMP:  40;

KIMBALL        CLOUDY    32  32 100 W3        29.80F
SIDNEY         CLEAR     32  30  92 NW10      29.81F WCI  24
6HR MIN TEMP:  29; 6HR MAX TEMP:  33;

$$

NEZ057>060-069>072-079>082-301300-
SOUTHWEST NEBRASKA

CITY           SKY/WX    TMP DP  RH WIND       PRES   REMARKS
NORTH PLATTE   CLOUDY    38  31  76 N13       29.83R WCI  30
6HR MIN TEMP:  38; 6HR MAX TEMP:  40;

IMPERIAL       CLOUDY    36  34  92 N12       29.83R WCI  28
6HR MIN TEMP:  31; 6HR MAX TEMP:  36;

LEXINGTON      CLOUDY    36  34  91 N12       29.81R WCI  28
MCCOOK         CLOUDY    39  34  82 N12       29.81S WCI  32
6HR MIN TEMP:  39; 6HR MAX TEMP:  41;

OGALLALA       CLOUDY    37  36  96 NE6       29.83S FOG     WCI  32
$$

NEZ005>010-023>029-035>040-094-301300-
NORTH CENTRAL NEBRASKA

CITY           SKY/WX    TMP DP  RH WIND       PRES   REMARKS
VALENTINE      CLOUDY    35  33  92 NE5       29.85S WCI  31
6HR MIN TEMP:  35; 6HR MAX TEMP:  40;

AINSWORTH      CLOUDY    35  35  99 NE9       29.84S WCI  28
BROKEN BOW     CLOUDY    36  33  89 NE13      29.80S WCI  27
6HR MIN TEMP:  36; 6HR MAX TEMP:  38;

O`NEILL        CLOUDY    37  37  99 N10       29.84S FOG     WCI  30
ORD            CLOUDY    37  34  89 N14       29.81R WCI  28
6HR MIN TEMP:  37; 6HR MAX TEMP:  38; 6HR PCP: TRACE;

THEDFORD       CLOUDY    37  35  94 NE8       29.84R WCI  30
$$

NEZ041-046>049-061>064-073>077-083>087-301300-
SOUTH CENTRAL NEBRASKA

CITY           SKY/WX    TMP DP  RH WIND       PRES   REMARKS
GRAND ISLAND   CLOUDY    37  37 100 N20G29    29.77S WCI  27
6HR MIN TEMP:  36; 6HR MAX TEMP:  37;

AURORA         CLOUDY    37  37 100 N21G28    29.76R WCI  27
HASTINGS       CLOUDY    38  35  89 N20G28    29.76S WCI  28
6HR MIN TEMP:  36; 6HR MAX TEMP:  38;

HEBRON         CLOUDY    39  37  92 N14G23    29.71R WCI  30
HOLDREGE       CLOUDY    36  33  89 N17G29    29.78S WCI  26
KEARNEY *      CLOUDY    37  32  81 N16G26    29.79R WCI  28
YORK           CLOUDY    37  37 100 N21       29.74R WCI  27
$$

NEZ011>018-030>034-042>045-301300-
NORTHEAST NEBRASKA

CITY           SKY/WX    TMP DP  RH WIND       PRES   REMARKS
NORFOLK        CLOUDY    37  35  92 N15       29.78F WCI  28
6HR MIN TEMP:  37; 6HR MAX TEMP:  38; 6HR PCP:  0.01;

ALBION         CLOUDY    39  36  89 N14G20    29.80R FOG     WCI  30
BLAIR          RAIN      40  39  97 N14G23    29.71R WCI  32
FREMONT        CLOUDY    39  39 100 N9        29.74R WCI  33
TEKAMAH        CLOUDY    40  38  93 N17       29.75R WCI  31
6HR MIN TEMP:  40; 6HR MAX TEMP:  42; 6HR PCP: TRACE;

WAYNE          CLOUDY    38  38  99 N16       29.80R WCI  29
$$

NEZ050>053-065>068-078-088>093-301300-
SOUTHEAST NEBRASKA

CITY           SKY/WX    TMP DP  RH WIND       PRES   REMARKS
LINCOLN        CLOUDY    40  39  97 N20G28    29.71R WCI  30
6HR MIN TEMP:  40; 6HR MAX TEMP:  42; 6HR PCP:  0.04;

OMAHA EPPLEY   LGT RAIN  41  37  86 N13       29.71S FOG
6HR MIN TEMP:  41; 6HR MAX TEMP:  44; 6HR PCP: TRACE;

BEATRICE       LGT SNOW  41  40  98 N10G21    29.67R
FALLS CITY     HVY RAIN  44  43  96 N15G21    29.60R FOG
6HR MIN TEMP:  44; 6HR MAX TEMP:  49; 6HR PCP:  0.55;

NEBRASKA CITY  CLOUDY    41  41 100 N20G25    29.65R FOG
PLATTSMOUTH    DRIZZLE   41  39  92 N16       29.67S
$$

NEZ044-045-051>053-067-301300-
OMAHA AREA

CITY           SKY/WX    TMP DP  RH WIND       PRES   REMARKS
OMAHA EPPLEY   LGT RAIN  41  37  86 N13       29.71S FOG
6HR MIN TEMP:  41; 6HR MAX TEMP:  44; 6HR PCP: TRACE;

BLAIR          RAIN      40  39  97 N14G23    29.71R WCI  32
FREMONT        CLOUDY    39  39 100 N9        29.74R WCI  33
MILLARD        CLOUDY    43  41  93 N10G18    29.71R FOG
OFFUTT AFB     LGT RAIN  41  39  93 N13       29.69R
PLATTSMOUTH    DRIZZLE   41  39  92 N16       29.67S
WAHOO          CLOUDY    40  38  95 N20G25    29.72R WCI  30
$$



USA.gov is the U.S. government's official web portal to all federal, state and local government web resources and services.